Location: Berg
(47.2344°N, 9.5296°E)
Time: 14:45:12
(UTC+00:00)

N. Korean satellite - Pass Details

Date: 17 September 2021
Orbit: 450 x 495 km, 97.3° (Epoch: 19 October)

Event Time Altitude Azimuth Distance (km) Brightness Sun altitude
Rises 04:06:18 0° 22° (NNE) 2,497 10.7 -10.2°
Reaches altitude 10° 04:08:32 10° 35° (NE) 1,624 10.0 -9.8°
Maximum altitude 04:11:36 28° 96° (E) 910 8.8 -9.3°
Drops below altitude 10° 04:14:40 10° 157° (SSE) 1,633 9.4 -8.8°
Sets 04:16:55 0° 169° (S) 2,515 10.2 -8.4°
